Location: Budapest
(47.4979°N, 19.0402°E)
Time: 21:57:43
(UTC+02:00)

Vanguard 1 - Visible Passes

Search period start: 18 July 2018 00:00
Search period end: 28 July 2018 00:00
Orbit: 650 x 3832 km, 34.2° (Epoch: 17 July)

Date Brightness Start Highest point End Pass type
(mag) Time Alt. Az. Time Alt. Az. Time Alt. Az.
18 Jul 11.1 02:51:27 16° SSE 02:51:27 16° SSE 02:53:34 10° SE visible
19 Jul 11.1 03:11:42 15° S 03:11:42 15° S 03:13:56 10° SSE visible
20 Jul 11.3 03:32:03 13° S 03:32:03 13° S 03:33:53 10° SSE visible
22 Jul 11.6 21:33:09 10° S 21:35:36 12° SSE 21:37:09 11° SSE visible
23 Jul 11.4 21:52:19 10° SSW 21:56:22 15° SSE 21:57:30 15° SSE visible
24 Jul 11.2 22:12:16 10° SW 22:17:08 18° S 22:17:45 18° SSE visible
25 Jul 11.1 22:32:37 10° SW 22:37:53 21° S 22:37:54 21° S visible
26 Jul 11.1 22:53:12 10° SW 22:57:58 22° SSW 22:57:58 22° SSW visible
27 Jul 11.7 20:52:24 10° SW 20:59:30 22° S 21:04:25 10° ESE visible
27 Jul 11.3 23:13:59 10° WSW 23:17:57 21° SSW 23:17:57 21° SSW visible
